Lid_Strength_Index
-0 -1 -1 -1 -1 -1 -1 -1 -1 -1 -1 -1 -1 -1 -1 -1 0 3 7 4 1 -2 -2 2 4 4 5 7 7 9 12 13 12 12 10 8 9 8 8 10 9 9 10 8 7
0 -0 -0 -0 -0 -0 -0 -1 -1 -1 -1 -1 -1 -1 -0 -0 3 6 1 -2 -2 -2 3 4 6 6 8 7 7 9 12 11 9 10 10 9 9 10 11 11 11 10 9 8 8
0 0 -0 -0 -0 0 -0 -1 -1 -1 -1 -1 -1 -0 -0 1 8 7 -3 -2 -1 -1 2 2 4 7 9 8 9 10 11 9 8 8 8 9 11 10 11 12 11 12 11 10 10
0 0 -0 0 0 1 0 -0 -1 -1 -1 -1 -1 -0 -0 3 12 6 -3 -4 -4 0 3 5 7 9 10 10 8 11 9 9 7 8 9 11 11 12 11 12 11 11 10 10 11
0 0 0 0 0 1 0 -0 -1 -1 -1 -1 -1 0 3 9 9 5 -2 -0 3 3 6 7 8 9 11 10 10 11 10 9 9 10 11 10 12 12 13 11 11 10 11 11 11
1 1 1 0 0 -0 -0 -1 -1 -1 -1 -0 0 1 8 10 5 5 5 5 5 6 6 7 8 8 10 10 10 9 9 10 10 10 10 11 12 11 12 11 11 11 12 11 11
1 1 1 1 -0 -1 -1 -1 -0 -0 0 0 1 2 8 9 5 6 5 6 6 6 7 6 7 9 9 10 9 9 11 10 10 10 11 10 13 14 12 12 12 13 12 12 11
1 1 1 1 -0 -0 0 0 1 1 1 0 0 5 9 5 5 6 6 6 5 6 6 6 7 7 9 9 10 12 12 13 10 10 10 11 16 13 12 13 14 13 13 13 12
1 1 1 1 1 1 2 2 2 1 1 1 4 8 10 3 6 6 7 8 6 6 6 5 7 10 10 13 14 13 15 14 12 11 11 12 16 13 12 13 14 14 14 13 13
1 1 1 1 1 2 2 2 2 2 1 1 4 9 7 8 6 6 7 6 7 7 7 8 10 13 13 13 17 16 15 14 15 13 13 15 16 14 13 14 16 15 15 14 13
1 1 1 1 1 2 2 5 8 8 8 9 9 8 7 6 6 8 7 7 8 9 11 11 13 15 14 14 14 14 15 16 13 12 14 15 16 15 15 15 16 16 15 15 14
1 1 2 2 2 2 4 7 8 7 10 8 8 7 6 7 9 8 7 9 10 12 11 13 15 13 12 12 13 14 15 16 14 13 14 16 17 16 16 17 16 16 16 15 14
2 2 2 2 2 4 5 5 4 6 10 9 8 8 8 7 10 9 8 10 11 12 13 15 13 11 12 13 14 15 15 16 15 14 14 15 18 18 17 16 15 15 15 14 14
2 2 2 3 4 5 6 3 3 6 14 11 9 8 8 8 10 8 8 10 11 13 13 13 12 12 13 13 14 16 13 13 14 16 19 15 21 19 19 18 16 17 16 15 14
2 2 2 3 5 7 6 3 4 10 18 10 9 7 8 10 10 9 8 9 12 13 13 14 13 13 14 13 13 14 13 15 15 17 18 18 19 21 19 19 18 17 15 14 13
2 2 3 5 5 5 3 4 8 15 19 12 10 10 11 10 10 9 10 9 10 12 12 13 11 12 13 12 13 12 15 16 16 17 20 19 19 22 21 20 18 16 15 14 12
2 2 4 4 7 4 4 9 14 17 12 13 13 11 12 13 12 11 12 13 15 16 16 14 13 12 12 14 13 14 18 21 20 21 21 19 20 23 19 18 17 16 15 13 11
3 3 4 3 3 3 8 12 16 14 15 12 12 12 13 12 13 13 13 15 13 14 17 17 17 13 11 14 16 16 18 21 23 23 22 18 23 22 17 16 15 14 12 11 10
3 5 7 6 2 6 9 14 15 14 13 13 13 14 14 13 13 14 15 15 14 14 16 17 17 13 12 13 14 16 18 16 19 21 23 21 23 19 17 16 15 13 11 11 9
6 7 7 5 4 7 11 13 13 11 11 12 16 15 16 14 15 15 16 14 13 13 13 16 18 14 13 13 14 15 15 20 20 23 24 23 22 21 19 17 14 13 12 11 9
6 9 6 4 6 9 13 13 12 10 11 13 14 15 15 15 15 16 16 14 13 13 14 16 17 17 15 16 18 17 18 18 20 21 23 24 23 18 18 15 14 12 11 10 10
7 10 6 5 9 12 12 11 10 11 10 11 12 13 14 15 15 15 15 14 13 13 16 17 18 20 18 16 16 17 20 20 23 24 22 23 22 16 16 14 12 11 10 10 9
9 8 5 6 12 13 11 11 11 11 12 12 13 12 13 14 15 14 14 13 13 15 18 17 19 21 20 19 18 20 20 19 20 22 24 24 22 16 16 13 11 11 11 11 10
8 10 8 9 10 11 12 12 12 11 12 12 12 12 13 15 14 15 14 13 14 14 11 14 19 20 22 21 20 21 20 20 20 24 23 22 21 18 16 13 12 11 13 11 11
8 10 10 11 11 11 11 11 12 13 12 12 13 13 14 16 16 16 15 15 14 13 16 17 21 21 20 19 20 20 20 21 22 22 23 21 21 18 15 14 13 13 11 11 12
9 9 10 11 10 11 11 12 12 13 13 14 14 14 15 15 16 16 15 16 17 17 18 18 21 20 21 20 20 20 20 21 20 20 21 19 19 16 13 13 12 14 12 13 13
9 9 8 11 11 11 12 12 11 13 13 14 13 15 15 15 15 16 16 16 16 17 18 19 20 22 25 22 21 23 21 21 21 20 20 21 17 15 13 12 12 13 13 14 14